Torna al catalogo

STARLINK-36860

AttivoComunicazioniVLEO
NORAD 67935·PAYLOAD·🇺🇸 United States

Lanciato Feb 24, 2026 da Vandenberg Space Force Base

Loading…

Prossimi Passaggi (prossime 24 ore)

TLE

AggiornatoSource: CelesTrak SupGP

Epoca: Sep 15, 2026, 03:28 UTC

1 67935C 26037D   26258.14493056 -.00045997  00000+0 -16658-2 0  2584
2 67935  43.0030 201.0730 0001051 272.6572  37.5335 15.27605125    14

Traccia STARLINK-36860 in tempo reale con AllMySat

Download on the App Store